Silver City, NM

7:20 PM MDT on October 18, 2019 (GMT -0600)
Grant County

Weather History for KSVC - September, 2019

Change the Weather History Date:

Friday, September 20, 2019

  Actual Average (KDMN) Record (KDMN)
Temperature  
Mean Temperature 69 °F -  
Max Temperature 82 °F 86 °F 97 °F (1954)
Min Temperature 56 °F 54 °F 43 °F (1971)
Cooling Degree Days 4    
Growing Degree Days 19 (Base 50)    
Moisture  
Dew Point 46 °F    
Average Humidity 49    
Maximum Humidity 75    
Minimum Humidity 20    
Precipitation  
Precipitation 0.00 in - - ()
Sea Level Pressure  
Sea Level Pressure 30.06 in    
Wind  
Wind Speed 8 mph (NW)    
Max Wind Speed 16 mph    
Max Gust Speed 24 mph    
Visibility 10 miles    
Events      
Averages and records for this station are not official NWS values.
T = Trace of Precipitation, MM = Missing Value Source: NWS Daily Summary

Daily Weather History Graph

Daily Weather History Graph

Search for Another Location

Airport or City:

Astronomy

Sep. 20, 2019 Rise Set
Actual Time 6:59 AM MDT 7:12 PM MDT
Civil Twilight 6:34 AM MDT 7:36 PM MDT
Nautical Twilight 6:06 AM MDT 8:05 PM MDT
Astronomical Twilight 5:37 AM MDT 8:34 PM MDT
Moon 11:23 PM MDT (9/20) 12:48 PM MDT (9/20)
Length of Visible Light 13h 01m
Length of Day
12h 12m
Waning Gibbous, 64% of the Moon is Illuminated
Sep 20
Waning Gibbous
Sep 21
Last Quarter
Sep 28
New
Oct 5
First Quarter
Oct 13
Full

Hourly Weather History & Observations

Time (MDT) Temp. Dew Point Humidity Pressure Visibility Wind Dir Wind Speed Gust Speed Precip Events Conditions
12:15 AM 63.5 °F 53.8 °F 71% 30.04 in 10.0 mi NW 4.6 mph - N/A   Overcast
12:35 AM 62.8 °F 53.8 °F 72% 30.04 in 10.0 mi NNW 3.5 mph - N/A   Scattered Clouds
12:55 AM 61.0 °F 53.1 °F 75% 30.04 in 10.0 mi NNW 6.9 mph - N/A   Clear
1:15 AM 61.2 °F 52.9 °F 74% 30.04 in 10.0 mi NNW 5.8 mph - N/A   Mostly Cloudy
1:35 AM 61.7 °F 52.5 °F 72% 30.04 in 10.0 mi North 6.9 mph - N/A   Overcast
1:55 AM 61.3 °F 52.9 °F 74% 30.04 in 10.0 mi NNW 5.8 mph - N/A   Overcast
2:15 AM 60.3 °F 52.3 °F 75% 30.04 in 10.0 mi North 8.1 mph - N/A   Scattered Clouds
2:35 AM 59.9 °F 51.8 °F 75% 30.04 in 10.0 mi North 9.2 mph - N/A   Clear
2:55 AM 59.5 °F 51.1 °F 74% 30.04 in 10.0 mi North 9.2 mph - N/A   Clear
3:15 AM 59.4 °F 50.9 °F 74% 30.03 in 10.0 mi North 6.9 mph - N/A   Clear
3:35 AM 58.5 °F 50.5 °F 75% 30.02 in 10.0 mi North 8.1 mph - N/A   Clear
3:55 AM 58.8 °F 50.0 °F 73% 30.02 in 10.0 mi North 8.1 mph - N/A   Mostly Cloudy
4:15 AM 59.0 °F 49.5 °F 71% 30.02 in 10.0 mi North 8.1 mph - N/A   Overcast
4:35 AM 58.3 °F 49.3 °F 72% 30.02 in 10.0 mi North 9.2 mph - N/A   Overcast
4:55 AM 57.0 °F 49.1 °F 75% 30.02 in 10.0 mi NNW 9.2 mph - N/A   Overcast
5:15 AM 57.6 °F 49.1 °F 73% 30.04 in 10.0 mi North 6.9 mph - N/A   Overcast
5:35 AM 56.8 °F 49.1 °F 75% 30.04 in 10.0 mi NNW 8.1 mph - N/A   Overcast
5:55 AM 56.7 °F 48.6 °F 74% 30.04 in 10.0 mi North 9.2 mph - N/A   Scattered Clouds
6:15 AM 56.8 °F 47.8 °F 72% 30.04 in 10.0 mi North 8.1 mph - N/A   Clear
6:35 AM 56.1 °F 48.2 °F 75% 30.05 in 10.0 mi North 5.8 mph - N/A   Mostly Cloudy
6:55 AM 57.0 °F 48.6 °F 73% 30.06 in 10.0 mi North 6.9 mph - N/A   Overcast
7:15 AM 57.6 °F 48.7 °F 72% 30.06 in 10.0 mi North 8.1 mph - N/A   Overcast
7:35 AM 59.0 °F 49.3 °F 70% 30.07 in 10.0 mi North 6.9 mph - N/A   Mostly Cloudy
7:55 AM 61.9 °F 49.6 °F 64% 30.08 in 10.0 mi North 4.6 mph - N/A   Scattered Clouds
8:15 AM 65.5 °F 48.7 °F 55% 30.08 in 10.0 mi Calm Calm - N/A   Clear
8:35 AM 68.2 °F 47.8 °F 48% 30.08 in 10.0 mi NNW 4.6 mph - N/A   Clear
8:55 AM 70.5 °F 45.0 °F 40% 30.09 in 10.0 mi NW 4.6 mph - N/A   Scattered Clouds
9:15 AM 71.8 °F 45.0 °F 38% 30.10 in 10.0 mi West 3.5 mph - N/A   Scattered Clouds
9:35 AM 72.7 °F 44.6 °F 37% 30.11 in 10.0 mi WSW 3.5 mph - N/A   Scattered Clouds
9:55 AM 73.6 °F 45.1 °F 36% 30.12 in 10.0 mi WSW 4.6 mph - N/A   Mostly Cloudy
10:15 AM 75.2 °F 45.1 °F 34% 30.12 in 10.0 mi WSW 4.6 mph - N/A   Overcast
10:35 AM 76.6 °F 43.7 °F 31% 30.12 in 10.0 mi West 10.4 mph 17.3 mph N/A   Mostly Cloudy
10:55 AM 77.4 °F 43.7 °F 30% 30.11 in 10.0 mi WSW 10.4 mph 16.1 mph N/A   Mostly Cloudy
11:15 AM 77.5 °F 41.9 °F 28% 30.10 in 10.0 mi WSW 10.4 mph - N/A   Scattered Clouds
11:35 AM 78.6 °F 41.7 °F 27% 30.10 in 10.0 mi WSW 11.5 mph - N/A   Scattered Clouds
11:55 AM 79.2 °F 42.3 °F 27% 30.10 in 10.0 mi WNW 13.8 mph 18.4 mph N/A   Scattered Clouds
12:15 PM 79.3 °F 43.2 °F 28% 30.10 in 10.0 mi West 11.5 mph 16.1 mph N/A   Clear
12:35 PM 80.1 °F 43.3 °F 27% 30.09 in 10.0 mi West 10.4 mph 19.6 mph N/A   Clear
12:55 PM 80.4 °F 43.0 °F 26% 30.09 in 10.0 mi West 12.7 mph 19.6 mph N/A   Clear
1:15 PM 79.9 °F 42.6 °F 27% 30.09 in 10.0 mi SW 10.4 mph 19.6 mph N/A   Scattered Clouds
1:35 PM 81.0 °F 44.6 °F 28% 30.08 in 10.0 mi West 16.1 mph 21.9 mph N/A   Scattered Clouds
1:55 PM 81.1 °F 40.3 °F 23% 30.08 in 10.0 mi West 8.1 mph 19.6 mph N/A   Scattered Clouds
2:15 PM 80.8 °F 41.7 °F 25% 30.07 in 10.0 mi SW 6.9 mph - N/A   Mostly Cloudy
2:35 PM 81.3 °F 40.8 °F 24% 30.06 in 10.0 mi WSW 10.4 mph 21.9 mph N/A   Mostly Cloudy
2:55 PM 81.7 °F 37.2 °F 20% 30.06 in 10.0 mi WSW 12.7 mph 20.7 mph N/A   Mostly Cloudy
3:15 PM 82.2 °F 38.7 °F 21% 30.06 in 10.0 mi WSW 12.7 mph 20.7 mph N/A   Mostly Cloudy
3:35 PM 82.0 °F 40.1 °F 22% 30.05 in 10.0 mi WSW 10.4 mph 24.2 mph N/A   Scattered Clouds
3:55 PM 81.3 °F 39.2 °F 22% 30.05 in 10.0 mi WSW 15.0 mph 23.0 mph N/A   Scattered Clouds
4:15 PM 82.8 °F 41.2 °F 23% 30.04 in 10.0 mi West 11.5 mph 17.3 mph N/A   Clear
4:35 PM 81.7 °F 41.0 °F 24% 30.03 in 10.0 mi West 12.7 mph 19.6 mph N/A   Scattered Clouds
4:55 PM 80.6 °F 41.2 °F 25% 30.03 in 10.0 mi West 11.5 mph - N/A   Scattered Clouds
5:15 PM 81.1 °F 42.4 °F 25% 30.03 in 10.0 mi WSW 12.7 mph 18.4 mph N/A   Mostly Cloudy
5:35 PM 81.0 °F 41.2 °F 24% 30.03 in 10.0 mi West 11.5 mph - N/A   Scattered Clouds
5:55 PM 80.4 °F 40.6 °F 24% 30.02 in 10.0 mi WNW 13.8 mph 18.4 mph N/A   Clear
6:15 PM 79.9 °F 40.5 °F 24% 30.02 in 10.0 mi WSW 11.5 mph 17.3 mph N/A   Clear
6:55 PM 78.1 °F 41.0 °F 27% 30.02 in 10.0 mi West 9.2 mph - N/A   Clear
7:15 PM 76.3 °F 41.2 °F 28% 30.03 in 10.0 mi West 6.9 mph - N/A   Clear
7:35 PM 73.6 °F 41.9 °F 32% 30.03 in 10.0 mi West 6.9 mph - N/A   Clear
7:55 PM 69.6 °F 43.0 °F 38% 30.04 in 10.0 mi WNW 5.8 mph - N/A   Clear
8:15 PM 65.5 °F 44.1 °F 46% 30.04 in 10.0 mi NW 5.8 mph - N/A   Clear
8:35 PM 63.5 °F 45.0 °F 51% 30.04 in 10.0 mi NW 4.6 mph - N/A   Clear
8:55 PM 62.8 °F 45.5 °F 53% 30.06 in 10.0 mi NW 5.8 mph - N/A   Clear
9:15 PM 61.9 °F 45.7 °F 55% 30.06 in 10.0 mi NW 5.8 mph - N/A   Clear
9:35 PM 61.3 °F 46.2 °F 58% 30.06 in 10.0 mi NNW 8.1 mph - N/A   Clear
10:15 PM 59.5 °F 46.4 °F 62% 30.07 in 10.0 mi North 8.1 mph - N/A   Scattered Clouds
10:35 PM 60.1 °F 46.0 °F 60% 30.07 in 10.0 mi North 8.1 mph - N/A   Clear
10:55 PM 58.3 °F 45.7 °F 63% 30.08 in 10.0 mi NNW 9.2 mph - N/A   Clear
11:15 PM 58.1 °F 45.7 °F 63% 30.08 in 10.0 mi North 6.9 mph - N/A   Clear
11:35 PM 59.2 °F 45.3 °F 60% 30.08 in 10.0 mi NNW 6.9 mph - N/A   Clear
11:55 PM 58.3 °F 45.0 °F 61% 30.08 in 10.0 mi NNW 6.9 mph - N/A   Mostly Cloudy